TimeEDT,TemperatureF,Dew PointF,Humidity,Sea Level PressureIn,VisibilityMPH,Wind Direction,Wind SpeedMPH,Gust SpeedMPH,PrecipitationIn,Events,Conditions,WindDirDegrees,DateUTC
12:17 AM,70.9,50.2,48,29.92,10.0,WSW,9.2,-,N/A,,Overcast,250,2013-04-10 04:17:00
12:37 AM,70.5,50.2,48,29.92,10.0,West,9.2,-,N/A,,Overcast,260,2013-04-10 04:37:00
12:56 AM,69.8,50.4,50,29.92,10.0,WSW,8.1,-,N/A,,Overcast,250,2013-04-10 04:56:00
1:17 AM,68.9,50.9,53,29.92,10.0,WSW,4.6,-,N/A,,Overcast,250,2013-04-10 05:17:00
1:37 AM,66.9,50.2,55,29.92,10.0,NW,4.6,-,N/A,,Overcast,310,2013-04-10 05:37:00
2:17 AM,62.6,47.7,58,29.93,10.0,WNW,3.5,-,N/A,,Overcast,300,2013-04-10 06:17:00
2:37 AM,62.1,47.8,60,29.94,10.0,WNW,4.6,-,N/A,,Overcast,300,2013-04-10 06:37:00
2:56 AM,61.9,47.8,60,29.94,10.0,Calm,Calm,-,N/A,,Overcast,0,2013-04-10 06:56:00
3:17 AM,61.7,48.0,61,29.94,10.0,Calm,Calm,-,N/A,,Overcast,0,2013-04-10 07:17:00
3:37 AM,60.6,49.5,67,29.94,10.0,Calm,Calm,-,N/A,,Overcast,0,2013-04-10 07:37:00
3:57 AM,60.1,48.4,65,29.94,10.0,Calm,Calm,-,N/A,,Overcast,0,2013-04-10 07:57:00
4:15 AM,59.0,48.7,69,29.94,10.0,Calm,Calm,-,N/A,,Overcast,0,2013-04-10 08:15:00
4:37 AM,59.9,48.0,65,29.92,10.0,Calm,Calm,-,N/A,,Overcast,0,2013-04-10 08:37:00
8:05 AM,58.3,47.5,67,29.93,10.0,SE,3.5,-,N/A,,Overcast,140,2013-04-10 12:05:00
8:17 AM,59.0,48.2,67,29.92,10.0,South,3.5,-,N/A,,Overcast,170,2013-04-10 12:17:00
8:37 AM,60.6,49.8,68,29.92,10.0,Calm,Calm,-,N/A,,Overcast,0,2013-04-10 12:37:00
8:56 AM,62.6,51.8,68,29.91,10.0,South,3.5,-,N/A,,Overcast,180,2013-04-10 12:56:00
9:17 AM,63.5,53.2,69,29.91,10.0,SSW,3.5,-,N/A,,Overcast,200,2013-04-10 13:17:00
9:37 AM,64.8,54.7,70,29.91,10.0,SSW,6.9,-,N/A,,Overcast,200,2013-04-10 13:37:00
9:57 AM,66.2,55.6,69,29.90,10.0,SW,5.8,-,N/A,,Mostly Cloudy,220,2013-04-10 13:57:00
10:17 AM,68.2,56.5,66,29.89,10.0,SW,9.2,-,N/A,,Mostly Cloudy,220,2013-04-10 14:17:00
10:37 AM,69.8,56.5,63,29.89,10.0,SW,9.2,17.3,N/A,,Mostly Cloudy,230,2013-04-10 14:37:00
10:57 AM,70.3,56.8,62,29.89,10.0,WSW,10.4,-,N/A,,Overcast,240,2013-04-10 14:57:00
11:17 AM,71.6,56.7,59,29.89,10.0,SW,8.1,20.7,N/A,,Mostly Cloudy,230,2013-04-10 15:17:00
11:37 AM,73.4,57.2,57,29.88,10.0,WSW,8.1,20.7,N/A,,Mostly Cloudy,240,2013-04-10 15:37:00
11:56 AM,73.2,57.2,57,29.88,10.0,SW,12.7,20.7,N/A,,Mostly Cloudy,220,2013-04-10 15:56:00
12:17 PM,72.0,57.2,60,29.88,10.0,SSW,11.5,16.1,N/A,,Overcast,210,2013-04-10 16:17:00
12:37 PM,63.3,56.7,79,29.90,0.2,SW,5.8,-,0.29,,Overcast,230,2013-04-10 16:37:00
1:17 PM,-9999,-9999,N/A,29.88,7.0,Calm,Calm,-,0.01,,Overcast,0,2013-04-10 17:17:00
1:36 PM,64.9,65.1,100,29.87,7.0,South,3.5,-,0.01,,Overcast,190,2013-04-10 17:36:00
1:57 PM,68.5,64.9,88,29.87,10.0,SW,8.1,-,0.01,,Scattered Clouds,220,2013-04-10 17:57:00
2:17 PM,68.5,62.8,82,29.88,5.0,WSW,10.4,16.1,0.02,,Mostly Cloudy,250,2013-04-10 18:17:00
2:37 PM,68.2,61.2,78,29.87,10.0,SSW,12.7,18.4,0.02,,Overcast,210,2013-04-10 18:37:00
2:57 PM,66.9,61.3,82,29.86,10.0,SSW,4.6,-,0.02,,Overcast,200,2013-04-10 18:57:00
3:17 PM,66.6,61.3,83,29.86,10.0,SSW,6.9,-,N/A,,Overcast,210,2013-04-10 19:17:00
3:37 PM,67.3,61.7,82,29.84,10.0,SSW,3.5,-,N/A,,Overcast,200,2013-04-10 19:37:00
3:56 PM,68.2,61.7,80,29.84,10.0,SSW,5.8,-,N/A,,Overcast,210,2013-04-10 19:56:00
4:17 PM,70.9,61.9,73,29.81,10.0,SSW,8.1,-,N/A,,Mostly Cloudy,200,2013-04-10 20:17:00
4:37 PM,71.1,61.0,70,29.80,10.0,SW,9.2,16.1,N/A,,Clear,230,2013-04-10 20:37:00
4:56 PM,71.4,61.0,70,29.83,10.0,WSW,13.8,19.6,N/A,,Clear,240,2013-04-10 20:56:00
5:17 PM,69.6,59.5,70,29.96,5.0,WNW,38.0,64.4,0.02,,Mostly Cloudy,290,2013-04-10 21:17:00
5:36 PM,58.3,57.0,96,29.87,2.5,WSW,4.6,-,0.28,,Overcast,250,2013-04-10 21:36:00
5:57 PM,-9999,-9999,N/A,29.83,7.0,WSW,4.6,-,0.29,,Overcast,240,2013-04-10 21:57:00
6:17 PM,58.1,58.1,100,29.83,5.0,SSW,4.6,-,0.02,,Overcast,210,2013-04-10 22:17:00
6:37 PM,58.5,58.6,100,29.86,10.0,West,6.9,-,0.04,,Overcast,270,2013-04-10 22:37:00
6:57 PM,58.8,58.3,98,29.85,10.0,West,12.7,-,0.04,,Overcast,280,2013-04-10 22:57:00
7:17 PM,57.9,53.6,86,29.87,10.0,WNW,10.4,17.3,N/A,,Overcast,290,2013-04-10 23:17:00
7:37 PM,55.9,56.1,100,29.90,4.0,West,9.2,-,0.04,,Overcast,280,2013-04-10 23:37:00
7:56 PM,54.9,55.0,100,29.92,1.0,NW,4.6,-,0.21,,Overcast,310,2013-04-10 23:56:00
8:17 PM,53.8,54.0,100,29.92,2.0,NW,8.1,-,0.08,,Overcast,310,2013-04-11 00:17:00
8:37 PM,52.7,52.9,100,29.92,3.0,North,4.6,-,0.18,,Overcast,350,2013-04-11 00:37:00
8:56 PM,51.8,51.8,100,29.90,5.0,NE,8.1,-,0.23,,Overcast,50,2013-04-11 00:56:00
9:17 PM,51.8,52.0,100,29.88,7.0,East,12.7,-,0.03,,Overcast,90,2013-04-11 01:17:00
9:36 PM,51.8,52.0,100,29.88,10.0,ESE,9.2,-,0.05,,Overcast,110,2013-04-11 01:36:00
9:57 PM,52.3,52.5,100,29.86,10.0,East,8.1,-,0.05,,Overcast,100,2013-04-11 01:57:00
10:17 PM,52.7,52.7,100,29.87,7.0,ESE,5.8,-,N/A,,Overcast,120,2013-04-11 02:17:00
10:57 PM,48.7,48.7,100,29.89,7.0,North,10.4,-,0.03,,Overcast,360,2013-04-11 02:57:00
11:17 PM,45.5,45.5,100,29.88,10.0,NE,5.8,-,N/A,,Overcast,40,2013-04-11 03:17:00
11:36 PM,45.0,45.1,100,29.91,7.0,Calm,Calm,-,N/A,,Overcast,0,2013-04-11 03:36:00
11:57 PM,45.5,45.7,100,29.88,7.0,East,4.6,-,0.01,,Overcast,90,2013-04-11 03:57:00